Jackson, MI

1:29 PM EST on November 21, 2019 (GMT -0500)
Jackson County-Reynolds

Weather History for KJXN - October, 2019

Change the Weather History Date:

Sunday, October 13, 2019

  Actual Average Record
Temperature  
Mean Temperature 51 °F 51 °F  
Max Temperature 59 °F 61 °F 84 °F (1975)
Min Temperature 43 °F 41 °F 25 °F (1987)
Degree Days  
Heating Degree Days 14 14  
Month to date heating degree days 120 159  
Since 1 July heating degree days 176 347  
Cooling Degree Days 0 0  
Month to date cooling degree days 13 3  
Year to date cooling degree days 663 589  
Growing Degree Days 1 (Base 50)    
Moisture  
Dew Point 33 °F    
Average Humidity 55    
Maximum Humidity 76    
Minimum Humidity 30    
Precipitation  
Precipitation 0.00 in 0.09 in 0.89 in (1983)
Month to date precipitation 1.45 1.22  
Year to date precipitation 28.44 25.62  
Sea Level Pressure  
Sea Level Pressure 29.86 in    
Wind  
Wind Speed 13 mph ()    
Max Wind Speed 28 mph    
Max Gust Speed 41 mph    
Visibility 10.0 miles    
Events      
T = Trace of Precipitation, MM = Missing Value Source: Averaged Metar Reports

Daily Weather History Graph

Daily Weather History Graph

Search for Another Location

Airport or City:

Astronomy

Oct. 13, 2019 Rise Set
Actual Time 7:48 AM EDT 6:59 PM EDT
Civil Twilight 7:19 AM EDT 7:27 PM EDT
Nautical Twilight 6:47 AM EDT 8:00 PM EDT
Astronomical Twilight 6:14 AM EDT 8:32 PM EDT
Moon 7:22 PM EDT (10/13) 7:19 AM EDT (10/13)
Length of Visible Light 12h 07m
Length of Day
11h 11m
Full, 100% of the Moon is Illuminated
Oct 13
Full
Oct 13
Full
Oct 21
Last Quarter
Oct 27
New
Nov 4
First Quarter

Hourly Weather History & Observations

Time (EDT) Temp. Windchill Dew Point Humidity Pressure Visibility Wind Dir Wind Speed Gust Speed Precip Events Conditions
12:56 AM 45.0 °F 38.9 °F 30.0 °F 56% 29.93 in 10.0 mi South 12.7 mph 25.3 mph N/A   Clear
1:56 AM 44.1 °F 36.8 °F 30.9 °F 60% 29.91 in 10.0 mi South 16.1 mph 23.0 mph N/A   Clear
2:56 AM 44.1 °F 36.8 °F 30.9 °F 60% 29.91 in 10.0 mi South 16.1 mph 25.3 mph N/A   Clear
3:56 AM 44.1 °F 36.8 °F 30.9 °F 60% 29.90 in 10.0 mi South 16.1 mph 25.3 mph N/A   Clear
4:56 AM 44.1 °F 37.1 °F 30.9 °F 60% 29.89 in 10.0 mi South 15.0 mph 24.2 mph N/A   Clear
5:56 AM 44.1 °F 37.4 °F 30.9 °F 60% 29.88 in 10.0 mi South 13.8 mph 24.2 mph N/A   Clear
6:56 AM 44.1 °F 37.1 °F 32.0 °F 63% 29.87 in 10.0 mi South 15.0 mph 24.2 mph N/A   Clear
7:56 AM 44.1 °F 37.4 °F 32.0 °F 63% 29.86 in 10.0 mi South 13.8 mph 23.0 mph N/A   Clear
8:56 AM 45.0 °F 38.5 °F 33.1 °F 63% 29.87 in 10.0 mi South 13.8 mph - N/A   Clear
9:56 AM 48.9 °F - 34.0 °F 56% 29.86 in 10.0 mi South 19.6 mph 25.3 mph N/A   Clear
10:56 AM 51.1 °F - 35.1 °F 54% 29.85 in 10.0 mi SSW 19.6 mph 27.6 mph N/A   Clear
11:56 AM 54.0 °F - 36.0 °F 51% 29.84 in 10.0 mi SW 17.3 mph 24.2 mph N/A   Clear
12:56 PM 57.0 °F - 34.0 °F 42% 29.82 in 10.0 mi SSW 20.7 mph 32.2 mph N/A   Clear
1:56 PM 57.0 °F - 32.0 °F 39% 29.80 in 10.0 mi SSW 20.7 mph 38.0 mph N/A   Clear
2:56 PM 59.0 °F - 34.0 °F 39% 29.78 in 10.0 mi SW 20.7 mph 31.1 mph N/A   Clear
3:56 PM 57.9 °F - 32.0 °F 37% 29.78 in 10.0 mi SW 17.3 mph 25.3 mph N/A   Clear
4:56 PM 57.0 °F - 27.0 °F 32% 29.79 in 10.0 mi WSW 19.6 mph 36.8 mph N/A   Clear
5:56 PM 54.0 °F - 28.0 °F 37% 29.81 in 10.0 mi WSW 12.7 mph 20.7 mph N/A   Mostly Cloudy
6:56 PM 50.0 °F - 33.1 °F 52% 29.84 in 10.0 mi WNW 9.2 mph - N/A   Overcast
7:56 PM 48.0 °F - 34.0 °F 58% 29.87 in 10.0 mi Variable 3.5 mph - N/A   Overcast
8:56 PM 46.0 °F 43.9 °F 35.1 °F 66% 29.89 in 10.0 mi WNW 4.6 mph - N/A   Overcast
9:56 PM 45.0 °F - 36.0 °F 71% 29.90 in 10.0 mi Calm Calm - N/A   Overcast
10:56 PM 45.0 °F 41.8 °F 37.0 °F 74% 29.91 in 10.0 mi SSW 5.8 mph - N/A   Overcast
11:56 PM 45.0 °F 42.6 °F 37.0 °F 74% 29.91 in 10.0 mi SSW 4.6 mph - N/A   Overcast